Location: Rylie
(32.6907°N, 96.6375°W)
Time: 06:15:03
(UTC+00:00)

Daily predictions for brighter satellites

Satellite Brightness Start Highest point End
(mag) Time Altitude Azimuth Time Altitude Azimuth Time Altitude Azimuth
Cosmos 1606 Rocket 3.5 12:04:33 10° N 12:09:00 89° ENE 12:13:23 10° S
USA 59 Rocket 1.8 12:10:50 10° N 12:14:27 31° ENE 12:19:13 10° ESE
Cosmos 2026 Rocket 3.9 12:09:46 10° S 12:15:48 89° W 12:21:53 10° N
Cosmos 841 Rocket 3.8 12:15:06 10° SW 12:20:00 42° WNW 12:24:58 10° N
Meteor 2-3 Rocket 3.7 12:15:17 10° SSW 12:20:59 65° W 12:26:41 10° N
Centaur D AC-28 4.0 12:16:11 11° W 12:23:22 24° SW 12:27:00 10° SSE
Cosmos 1484 Rocket 2.5 12:21:55 10° N 12:25:14 51° WNW 12:28:31 10° SSW
COSMOS 2455 3.1 12:23:26 10° NNW 12:29:28 73° ENE 12:35:26 10° SSE
Cosmos 1697 Rocket 4.3 12:31:20 11° WNW 12:34:00 15° W 12:37:07 10° SW
Cosmos 1933 3.9 12:31:43 10° NNW 12:35:08 32° W 12:38:33 10° SSW
Cosmos 1092 Rocket 4.0 12:29:18 10° SSW 12:35:35 70° W 12:41:51 10° N
Cosmos 1726 Rocket 3.6 12:32:59 10° NNW 12:37:16 57° W 12:41:22 10° S
Cosmos 1898 Rocket 3.5 12:36:44 10° NNW 12:41:55 66° WSW 12:47:07 10° S
Cosmos 2322 Rocket 4.3 12:39:02 10° N 12:43:35 24° ENE 12:48:06 10° ESE
COSMOS 2406 3.8 12:38:30 10° SW 12:43:36 34° WNW 12:48:43 10° N
Cosmos 1626 Rocket 4.2 12:39:45 10° S 12:44:07 62° E 12:48:29 10° NNE
Delta 2 Rocket 2.8 12:41:13 10° WNW 12:44:11 51° N 12:47:05 10° E
CZ-2D R/B 3.4 12:41:53 10° NNE 12:45:01 61° E 12:48:08 10° S
Cosmos 1892 Rocket 4.2 12:41:15 10° SW 12:45:09 33° W 12:49:06 10° NNW
Cosmos 2237 4.3 12:41:26 10° NNW 12:47:10 90° E 12:52:50 10° SSE
Cosmos 405 Rocket 3.1 12:46:56 10° S 12:50:04 56° E 12:53:16 10° NNE
SMAP 3.1 12:45:44 10° N 12:50:24 82° WNW 12:55:03 10° SSW
NOSS 3-2 (C) 3.3 23:40:35 10° S 23:45:05 46° ESE 23:50:08 10° NE
NOSS 3-2 (A) 3.8 23:43:37 10° SW 23:48:12 49° NW 23:53:29 10° NNE
Cosmos 1777 Rocket 4.4 23:43:30 10° S 23:48:24 42° ESE 23:53:21 10° NNE
COSMO-SKYMED 1 4.1 23:46:13 10° ENE 23:48:43 16° E 23:51:12 10° SE
SMAP 3.1 23:44:12 10° SSE 23:48:45 59° ENE 23:53:20 10° N
Gbstr 26 Del rocket 3.6 23:46:34 10° SSW 23:50:35 37° SE 23:54:09 10° ENE
IGS 5A 3.8 23:47:37 10° S 23:51:32 68° W 23:55:29 10° NNW
Cosmos 1697 Rocket 3.7 23:47:56 10° SSE 23:52:31 27° ESE 23:57:07 10° NE
